This is the latest recevied weather packets stored in our database for station/object WD7OO. If no packets are shown the sender has not sent any weather packets the latest 10 day(s).
| Time | Temp. | Humidity | Pressure | Rain* | Wind** | Luminosity | Snow |
|---|---|---|---|---|---|---|---|
| 1788617815 | 23.89° C | 96% | 1015.3 hPa | 0 mm | - | 138 W/m² | - |
| 1788617510 | 23.89° C | 95% | 1015.2 hPa | 0 mm | - | 112 W/m² | - |
| 1788617205 | 24.44° C | 96% | 1014.9 hPa | 0 mm | - | 187 W/m² | - |
| 1788616899 | 23.89° C | 96% | 1014.9 hPa | 0 mm | - | 393 W/m² | - |
| 1788616595 | 23.33° C | 99% | 1014.9 hPa | 0 mm | - | 262 W/m² | - |
| 1788616290 | 23.33° C | 99% | 1015.1 hPa | 0 mm | - | 218 W/m² | - |
| 1788615984 | 22.78° C | 99% | 1015.1 hPa | 0 mm | - | 173 W/m² | - |
| 1788615683 | 22.78° C | 99% | 1015.1 hPa | 0 mm | - | 146 W/m² | - |
| 1788615378 | 22.78° C | 99% | 1015.3 hPa | 0 mm | - | 120 W/m² | - |
| 1788615073 | 22.22° C | 99% | 1014.9 hPa | 0 mm | - | 117 W/m² | - |
| 1788614773 | 22.78° C | 99% | 1014.9 hPa | 0 mm | - | 82 W/m² | - |
| 1788614467 | 22.78° C | 99% | 1014.8 hPa | 0 mm | - | 76 W/m² | - |
| 1788614163 | 22.22° C | 99% | 1014.9 hPa | 0 mm | - | 75 W/m² | - |
| 1788613858 | 22.22° C | 99% | 1014.6 hPa | 0 mm | - | 74 W/m² | - |
| 1788613557 | 22.22° C | 99% | 1014.8 hPa | 0 mm | - | 74 W/m² | - |
| 1788613252 | 22.22° C | 99% | 1015.2 hPa | 0 mm | - | 94 W/m² | - |
| 1788612952 | 22.22° C | 99% | 1014.7 hPa | 0 mm | - | 93 W/m² | - |
| 1788612647 | 22.22° C | 99% | 1014.8 hPa | 0 mm | - | 94 W/m² | - |
| 1788612344 | 22.22° C | 99% | 1015.1 hPa | 0 mm | - | 96 W/m² | - |
| 1788612039 | 21.67° C | 99% | 1014.6 hPa | 0 mm | - | 80 W/m² | - |
| 1788611735 | 21.67° C | 99% | 1014.6 hPa | 0 mm | - | 89 W/m² | - |
| 1788611432 | 21.67° C | 99% | 1014.4 hPa | 0 mm | - | 78 W/m² | - |
| 1788611131 | 21.67° C | 99% | 1014.1 hPa | 0 mm | - | 53 W/m² | - |
| 1788610826 | 21.67° C | 99% | 1014.2 hPa | 0 mm | - | 46 W/m² | - |
| 1788610521 | 21.67° C | 99% | 1014.2 hPa | 0 mm | - | 44 W/m² | - |
* Rain latest hour (hover to see other rain measurements)
** Current wind speed in m/s (hover to see current wind gust speed)